This is the latest recevied weather packets stored in our database for station/object VK2OB. If no packets are shown the sender has not sent any weather packets the latest 10 day(s).
| Time | Temp. | Humidity | Pressure | Rain* | Wind** | Luminosity | Snow |
|---|---|---|---|---|---|---|---|
| 1777695728 | 24.44° C | 63% | 1022.3 hPa | 0 mm | - | - | - |
| 1777695429 | 24.44° C | 62% | 1022.4 hPa | 0 mm | - | - | - |
| 1777695129 | 24.44° C | 62% | 1022.3 hPa | 0 mm | - | - | - |
| 1777694830 | 24.44° C | 61% | 1022.3 hPa | 0 mm | - | - | - |
| 1777694531 | 24.44° C | 58% | 1022.4 hPa | 0 mm | - | - | - |
| 1777694232 | 24.44° C | 57% | 1022.4 hPa | 0 mm | - | - | - |
| 1777693933 | 24.44° C | 59% | 1022.4 hPa | 0 mm | - | - | - |
| 1777693634 | 24.44° C | 59% | 1022.5 hPa | 0 mm | - | - | - |
| 1777693335 | 25° C | 58% | 1022.6 hPa | 0 mm | - | - | - |
| 1777693030 | 25° C | 56% | 1022.6 hPa | 0 mm | - | - | - |
| 1777692574 | 25° C | 57% | 1022.6 hPa | 0 mm | - | - | - |
| 1777692124 | 25° C | 58% | 1022.6 hPa | 0 mm | - | - | - |
| 1777691825 | 25° C | 58% | 1022.7 hPa | 0 mm | - | - | - |
| 1777691525 | 25° C | 59% | 1022.8 hPa | 0 mm | - | - | - |
| 1777691226 | 24.44° C | 60% | 1022.8 hPa | 0 mm | - | - | - |
| 1777690927 | 24.44° C | 61% | 1023 hPa | 0 mm | - | - | - |
| 1777690645 | 24.44° C | 61% | 1023 hPa | 0 mm | - | - | - |
| 1777690328 | 23.89° C | 64% | 1023.2 hPa | 0 mm | - | - | - |
| 1777690028 | 23.89° C | 66% | 1023.2 hPa | 0 mm | - | - | - |
| 1777689728 | 23.89° C | 68% | 1023.4 hPa | 0 mm | - | - | - |
| 1777689428 | 23.89° C | 68% | 1023.5 hPa | 0 mm | - | - | - |
| 1777689129 | 23.89° C | 70% | 1023.6 hPa | 0 mm | - | - | - |
| 1777688829 | 23.33° C | 69% | 1023.7 hPa | 0 mm | - | - | - |
| 1777688530 | 23.33° C | 68% | 1023.7 hPa | 0 mm | - | - | - |
| 1777688231 | 23.33° C | 66% | 1023.8 hPa | 0 mm | - | - | - |
* Rain latest hour (hover to see other rain measurements)
** Current wind speed in m/s (hover to see current wind gust speed)